User: anonymous   Login
Location: Caltech
(34.1382°N, 118.1253°W)
Time: 22:22:24
(UTC-07:00)
Language:

Cosmos 676 Rocket - Orbit

View from above orbital plane
View from above orbital plane
View from above satellite
View from above satellite

Ground track
Ground track

The orbit data is extracted from the following two-line orbital elements,

1  7434U 74071B   17117.94759872 +.00000091 +00000-0 +39946-4 0  9990
2  7434 074.0458 306.2890 0021412 230.8573 129.0678 14.36627949229225
Epoch (UTC): 27 April 2017 22:44:32
Eccentricity: 0.0021412
inclination: 74.0458°
perigee height: 754 km
apogee height: 785 km
right ascension of ascending node: 306.2890°
argument of perigee: 230.8573°
revolutions per day: 14.36627949
mean anomaly at epoch: 129.0678°
orbit number at epoch: 22922

The dashed part of the orbit path shows where the satellite is in the earth's shadow,  

DLR